Wind_Speed
12 14 14 12 12 11 11 14 15 13 9 9 11 14 15 13 11 11 11 12 11 12 11 10 8 7 6 5 4 4 5 6 8 10 10 11 12 13 14 15 16 17 17 17
14 14 13 13 10 9 12 14 14 12 11 11 11 9 12 13 11 8 8 8 8 9 8 8 6 4 2 1 2 4 5 6 8 9 10 12 13 14 15 16 16 17 17 17
10 11 12 13 11 11 15 13 13 13 12 12 12 10 13 12 11 9 5 2 3 4 3 3 2 2 0 1 3 4 6 7 9 10 11 13 14 15 15 16 16 17 17 17
7 9 13 12 12 11 16 15 11 10 12 12 11 11 14 12 9 8 8 6 5 5 4 3 3 1 1 2 5 6 8 9 10 12 13 15 16 16 17 17 17 18 18 18
8 11 12 12 13 11 11 11 9 11 12 12 9 9 11 10 8 8 8 8 7 7 5 3 2 1 3 5 7 8 10 11 12 14 15 17 17 18 18 19 19 19 19 18
9 10 10 10 12 12 8 7 13 14 11 9 8 8 9 10 10 7 6 5 5 4 3 2 3 4 6 7 9 10 11 12 14 15 17 18 19 20 21 22 22 22 21 20
15 11 10 10 11 16 11 8 15 20 16 12 10 6 10 11 9 7 5 4 4 4 4 5 6 7 8 9 11 12 12 14 15 17 18 19 20 21 22 23 23 23 23 23
16 15 9 9 13 16 12 7 11 13 16 12 6 8 13 11 10 9 7 6 6 6 6 7 8 9 10 11 12 13 13 14 16 17 19 20 21 21 22 22 23 23 23 24
12 14 14 15 16 14 9 8 9 7 9 10 3 7 11 9 10 11 11 9 8 8 9 9 10 10 11 12 13 13 14 15 16 18 19 20 21 22 22 23 23 23 24 24
13 13 11 16 15 11 10 9 8 5 6 11 9 7 11 11 14 14 13 12 10 10 11 12 12 12 13 13 14 14 15 16 17 18 19 20 21 22 22 23 23 24 24 25
15 13 10 14 12 9 12 11 9 8 8 8 14 13 9 13 17 18 18 15 14 14 14 14 14 15 15 15 15 15 16 17 18 19 21 22 22 22 22 23 24 24 25 26
16 14 12 14 13 12 9 9 11 10 11 9 9 14 11 13 19 20 19 18 17 17 17 18 17 16 17 17 16 16 17 18 19 20 22 23 24 24 24 24 25 26 27 28
18 16 14 16 17 12 5 6 7 9 9 8 9 16 15 16 18 19 19 19 19 19 19 20 19 18 18 18 18 18 18 19 20 22 23 25 25 25 26 26 27 28 30 31
17 16 15 15 15 12 8 7 8 10 11 11 13 15 14 15 18 21 22 21 20 20 20 20 20 20 20 20 20 20 20 21 22 24 25 27 27 28 28 28 29 30 31 33
17 15 13 13 12 12 11 11 11 13 14 13 14 15 16 18 21 23 23 23 23 21 21 20 20 20 21 21 21 22 22 23 24 26 27 28 29 30 30 30 32 33 33 35
19 16 14 11 9 12 13 13 13 13 13 12 12 14 17 19 21 23 23 22 22 22 22 22 21 21 21 22 22 23 24 25 26 28 29 30 31 32 32 33 34 34 35 37
19 19 15 11 12 13 13 16 15 13 13 11 13 16 18 20 21 21 21 22 22 22 22 22 22 22 22 23 23 24 25 26 28 29 30 31 32 33 35 36 37 38 39 40
18 17 16 14 13 15 16 15 12 12 12 13 14 15 17 19 20 20 21 21 21 22 23 24 24 24 24 24 25 26 27 29 30 31 32 33 34 36 38 40 41 41 41 43
17 16 16 14 15 18 20 21 19 17 16 14 14 16 17 17 18 21 22 23 24 24 25 26 27 27 27 27 28 28 30 31 32 33 34 35 36 38 41 43 44 43 44 45
18 16 16 15 15 18 24 23 18 17 20 17 17 17 17 19 21 23 25 27 29 30 30 29 29 29 30 30 30 31 32 34 35 37 38 38 40 42 45 46 46 46 46 47
19 18 18 16 15 19 26 26 21 18 19 16 19 23 26 27 27 27 27 29 31 32 32 32 32 31 32 33 33 34 35 37 39 40 41 43 45 46 47 48 48 49 49 49
19 20 21 21 22 26 25 26 24 22 22 24 26 28 30 30 30 30 31 31 32 33 33 34 34 34 34 35 36 37 38 40 42 43 44 46 48 49 49 50 49 50 51 50
22 23 24 26 29 29 30 29 26 26 28 30 31 31 32 32 32 32 33 33 33 34 35 35 36 37 38 39 39 40 42 43 45 46 48 50 51 51 52 52 52 53 54 53
26 27 28 29 30 33 33 32 32 32 33 34 33 33 33 33 34 34 35 35 36 36 37 37 38 38 40 41 42 43 44 46 47 49 50 52 53 54 53 53 54 54 54 54
30 29 26 29 34 36 36 36 36 36 36 36 36 35 35 36 36 36 37 37 38 39 39 40 40 41 43 44 45 46 47 49 50 51 52 53 54 54 55 55 55 56 56 56
33 33 32 34 35 37 38 37 36 38 38 38 37 37 37 37 38 38 39 39 40 41 41 42 42 43 45 46 47 49 50 51 52 53 55 56 56 56 57 57 57 57 57 55
Wind_Direction
23 12 9 352 329 320 313 302 313 325 347 341 326 322 338 336 320 301 278 266 258 259 259 259 257 269 279 282 302 315 319 326 331 332 333 332 330 328 326 325 323 321 317 314
360 342 336 325 319 312 299 304 324 345 349 342 329 339 346 344 348 328 289 261 254 248 239 237 239 250 259 296 339 338 335 337 341 342 342 341 340 340 338 335 332 329 325 322
325 313 312 318 310 309 312 326 338 343 344 340 335 355 12 6 18 25 37 91 175 187 191 192 190 201 209 14 357 348 347 347 349 349 347 344 342 340 338 335 332 329 326 324
306 299 311 318 310 321 318 326 331 320 311 307 329 357 9 16 29 43 55 82 108 110 112 127 129 125 50 8 0 357 356 354 352 349 346 343 340 337 334 332 330 327 324 321
297 304 312 311 304 305 305 315 306 291 282 291 321 6 6 25 34 50 60 74 86 92 99 107 105 23 355 356 356 354 351 351 349 346 343 339 335 332 330 328 325 323 320 317
287 287 298 309 315 309 311 315 313 313 298 314 5 14 358 8 17 26 38 52 60 66 62 38 6 351 347 349 350 350 348 346 344 341 338 334 330 329 327 325 324 321 319 316
301 286 278 302 324 311 318 324 324 333 347 7 21 4 344 353 356 1 357 359 3 359 358 354 347 343 343 344 344 345 344 341 339 336 333 330 327 326 324 323 322 320 318 315
305 310 302 310 316 309 315 324 322 333 339 344 7 336 332 341 342 339 335 333 333 334 334 334 335 337 338 339 340 340 339 336 333 332 330 328 326 324 323 321 320 319 318 317
298 311 313 301 305 308 302 291 301 318 321 308 284 314 315 331 335 331 326 322 322 323 323 326 329 332 334 333 333 333 331 331 330 329 328 326 325 324 322 321 320 320 319 318
289 287 289 288 305 312 312 304 290 282 317 323 316 281 288 323 326 327 323 318 318 318 320 323 327 328 329 328 327 326 325 324 325 324 323 322 321 320 319 319 320 320 320 320
293 290 281 280 284 288 297 307 298 276 253 275 313 321 314 323 322 323 323 319 319 319 319 319 322 322 322 320 318 316 316 317 318 319 320 320 320 319 318 318 319 319 320 320
285 285 272 268 265 258 262 266 278 282 266 252 286 301 296 308 313 316 316 313 313 314 314 313 313 313 312 311 309 308 308 311 313 315 316 317 316 316 317 317 318 319 319 320
288 282 274 270 269 263 255 242 261 286 288 268 268 283 292 303 303 306 306 305 304 304 304 303 304 305 305 304 303 303 304 307 310 312 313 314 313 313 314 315 317 319 319 320
292 284 273 272 297 320 322 296 281 283 283 274 272 281 295 291 292 296 298 300 300 297 296 296 298 300 299 299 299 300 303 306 308 311 313 313 313 312 312 313 316 318 318 319
294 292 276 263 270 290 290 290 284 283 278 271 272 277 277 277 283 288 294 296 297 295 294 293 295 297 297 297 297 299 302 306 309 311 313 313 313 311 311 312 314 316 317 319
292 295 287 272 253 261 262 263 266 271 274 271 271 269 267 273 280 287 294 295 295 294 294 294 296 297 297 296 296 298 301 305 308 311 312 312 312 312 310 310 311 313 315 318
291 291 290 275 260 265 260 249 249 260 271 276 272 270 273 276 281 288 293 295 296 295 296 297 298 297 296 296 296 298 301 304 307 309 310 310 311 312 311 311 310 311 313 316
290 293 291 282 270 273 274 263 242 247 254 263 272 277 281 285 290 294 294 296 298 299 300 300 298 297 296 296 296 298 301 303 305 307 308 309 309 310 312 313 312 311 313 316
281 295 296 281 272 277 276 270 252 242 242 252 264 273 275 282 292 295 296 298 299 299 299 298 297 297 297 296 296 298 300 302 304 305 307 309 309 311 313 314 313 312 313 315
267 278 295 295 278 276 279 281 272 270 263 261 271 275 274 282 286 286 289 292 293 295 296 296 295 295 295 296 296 298 300 301 303 304 306 308 310 312 314 313 313 313 314 314
272 278 292 293 275 263 266 268 274 266 261 270 281 286 285 284 285 285 284 283 285 288 291 292 293 292 293 295 296 298 300 301 302 304 306 308 309 311 312 313 313 314 315 314
282 286 286 285 274 263 270 268 266 266 275 283 287 285 284 283 283 283 283 283 285 287 288 290 291 291 293 294 296 297 299 300 302 304 306 308 309 310 311 312 313 314 315 314
264 263 265 268 272 275 275 276 277 282 284 285 285 284 283 283 283 284 285 286 286 287 288 289 290 291 293 294 295 296 297 298 300 302 304 306 306 307 308 309 311 312 313 313
258 259 260 265 274 278 282 285 290 290 287 286 285 284 284 285 286 286 287 288 288 289 289 289 290 290 291 292 293 294 295 296 298 299 301 302 303 305 306 308 309 309 310 311
264 266 264 267 273 276 281 285 286 285 284 285 286 287 287 288 288 289 289 289 289 289 289 289 289 290 290 291 292 293 295 296 297 298 300 301 302 303 305 306 307 307 307 309
259 262 266 269 275 278 280 280 281 282 284 285 287 289 290 290 290 290 290 290 290 290 289 289 289 289 290 291 292 293 295 296 297 298 299 300 301 302 302 303 304 305 306 306
Height
5887 5886 5886 5886 5886 5885 5881 5876 5874 5872 5871 5869 5866 5862 5859 5856 5854 5852 5854 5855 5856 5857 5859 5861 5863 5864 5865 5866 5866 5866 5865 5865 5864 5863 5862 5860 5859 5857 5856 5854 5852 5850 5848 5846
5889 5888 5888 5887 5886 5883 5880 5876 5874 5873 5871 5869 5865 5860 5858 5857 5854 5852 5851 5852 5853 5855 5857 5859 5862 5864 5864 5865 5865 5865 5864 5864 5863 5861 5860 5858 5857 5855 5853 5851 5849 5847 5845 5843
5891 5891 5888 5887 5884 5881 5879 5876 5875 5872 5871 5868 5865 5860 5858 5858 5855 5853 5850 5851 5853 5855 5857 5859 5861 5863 5864 5864 5864 5864 5863 5862 5861 5860 5858 5857 5855 5853 5852 5850 5848 5846 5843 5841
5890 5889 5887 5885 5883 5881 5879 5877 5875 5873 5871 5868 5865 5861 5860 5858 5857 5856 5854 5854 5855 5856 5858 5860 5861 5862 5863 5863 5863 5862 5861 5860 5859 5857 5856 5855 5853 5852 5850 5848 5846 5844 5841 5839
5888 5888 5886 5884 5882 5880 5879 5877 5874 5871 5868 5865 5862 5862 5862 5860 5859 5858 5858 5858 5858 5859 5860 5861 5861 5862 5862 5862 5861 5860 5859 5858 5857 5855 5854 5852 5851 5849 5847 5845 5843 5841 5839 5837
5885 5884 5883 5883 5880 5878 5876 5875 5872 5869 5865 5862 5862 5863 5863 5862 5861 5861 5861 5860 5860 5860 5860 5860 5860 5861 5860 5860 5859 5858 5857 5856 5855 5853 5852 5850 5848 5846 5844 5842 5839 5837 5835 5833
5881 5879 5879 5879 5879 5876 5875 5874 5872 5867 5862 5861 5863 5863 5864 5863 5863 5862 5862 5861 5861 5860 5860 5860 5860 5859 5859 5858 5857 5856 5855 5854 5852 5851 5849 5847 5845 5843 5841 5838 5836 5833 5831 5829
5880 5877 5875 5877 5878 5876 5874 5874 5873 5872 5868 5865 5864 5864 5864 5863 5863 5862 5862 5861 5861 5860 5860 5859 5858 5858 5857 5856 5854 5853 5852 5851 5850 5848 5847 5845 5842 5840 5838 5835 5832 5830 5827 5824
5882 5880 5877 5877 5876 5875 5873 5872 5872 5871 5870 5867 5864 5863 5861 5862 5862 5862 5861 5860 5859 5859 5858 5857 5856 5855 5854 5853 5852 5851 5850 5849 5847 5846 5844 5842 5839 5837 5834 5831 5828 5825 5822 5819
5880 5879 5878 5875 5873 5872 5871 5870 5870 5869 5868 5866 5863 5862 5860 5860 5861 5860 5860 5859 5858 5857 5856 5855 5854 5853 5852 5851 5850 5849 5848 5846 5845 5843 5841 5839 5837 5834 5831 5827 5824 5821 5817 5814
5876 5875 5875 5873 5870 5870 5869 5869 5867 5867 5866 5866 5863 5861 5857 5859 5859 5858 5857 5856 5855 5854 5853 5852 5851 5850 5849 5848 5848 5846 5845 5844 5842 5840 5838 5835 5833 5830 5827 5824 5820 5816 5813 5809
5872 5872 5871 5869 5866 5865 5865 5866 5866 5866 5865 5865 5865 5864 5859 5858 5858 5857 5856 5854 5853 5852 5851 5849 5849 5848 5847 5846 5845 5844 5842 5840 5839 5836 5834 5831 5828 5825 5822 5819 5815 5811 5808 5804
5869 5868 5867 5865 5863 5861 5861 5863 5863 5863 5863 5863 5863 5863 5857 5857 5856 5855 5854 5853 5851 5850 5849 5847 5846 5845 5844 5842 5841 5840 5838 5836 5834 5832 5830 5827 5824 5821 5817 5813 5810 5806 5802 5797
5864 5863 5863 5862 5859 5858 5859 5860 5860 5861 5861 5861 5860 5859 5856 5854 5854 5852 5851 5850 5848 5847 5846 5845 5843 5842 5840 5839 5837 5835 5834 5832 5830 5827 5825 5822 5818 5815 5811 5808 5804 5800 5795 5791
5860 5860 5859 5858 5858 5858 5858 5859 5860 5859 5858 5858 5858 5856 5854 5852 5851 5850 5848 5846 5845 5843 5842 5841 5839 5838 5836 5834 5833 5831 5829 5827 5824 5821 5819 5816 5812 5809 5805 5801 5797 5793 5788 5783
5855 5855 5855 5855 5855 5855 5856 5857 5856 5856 5854 5854 5853 5853 5850 5849 5847 5846 5845 5843 5841 5839 5838 5836 5835 5833 5832 5830 5828 5826 5824 5821 5818 5815 5812 5809 5805 5802 5798 5794 5790 5785 5781 5775
5853 5851 5851 5851 5851 5850 5850 5850 5849 5850 5850 5850 5849 5849 5846 5845 5844 5842 5840 5838 5836 5835 5833 5831 5830 5828 5827 5825 5823 5820 5818 5815 5812 5809 5805 5802 5798 5794 5790 5786 5782 5777 5772 5766
5849 5847 5847 5847 5847 5847 5846 5842 5843 5845 5844 5844 5844 5842 5841 5840 5839 5837 5835 5833 5832 5830 5828 5826 5824 5822 5821 5818 5816 5813 5811 5808 5805 5801 5798 5794 5790 5786 5782 5777 5772 5767 5762 5757
5844 5843 5843 5843 5842 5842 5841 5838 5838 5838 5838 5838 5837 5836 5836 5835 5834 5831 5829 5828 5827 5825 5823 5821 5818 5815 5813 5811 5809 5806 5803 5800 5797 5793 5790 5786 5782 5777 5772 5767 5762 5757 5752 5746
5837 5838 5839 5838 5838 5838 5835 5831 5830 5832 5831 5830 5829 5829 5829 5829 5829 5827 5824 5822 5820 5818 5816 5814 5811 5809 5806 5803 5800 5798 5795 5791 5788 5784 5780 5777 5772 5767 5763 5757 5751 5746 5740 5735
5828 5829 5832 5832 5832 5832 5828 5827 5826 5828 5826 5822 5822 5822 5823 5822 5822 5820 5818 5816 5814 5811 5809 5806 5804 5801 5798 5795 5792 5789 5786 5782 5778 5774 5770 5766 5762 5757 5751 5746 5741 5735 5729 5723
5825 5826 5825 5826 5826 5825 5822 5820 5819 5819 5818 5817 5817 5817 5816 5815 5813 5811 5810 5808 5806 5804 5801 5798 5795 5792 5789 5786 5783 5780 5776 5772 5768 5764 5760 5756 5751 5746 5740 5735 5730 5724 5718 5712
5822 5823 5821 5820 5819 5817 5816 5815 5813 5813 5813 5812 5812 5810 5808 5807 5805 5803 5801 5799 5797 5795 5792 5789 5786 5783 5780 5777 5774 5770 5767 5762 5758 5754 5749 5745 5739 5734 5729 5723 5718 5712 5706 5700
5813 5813 5814 5812 5809 5809 5808 5808 5807 5807 5806 5805 5803 5802 5800 5798 5796 5794 5792 5790 5787 5785 5782 5779 5777 5773 5770 5767 5763 5760 5756 5752 5747 5743 5738 5733 5728 5723 5717 5711 5706 5700 5694 5688
5808 5806 5806 5805 5804 5802 5802 5801 5800 5799 5798 5796 5795 5793 5791 5789 5786 5784 5782 5779 5777 5774 5772 5769 5766 5763 5759 5755 5752 5748 5744 5740 5735 5731 5726 5720 5715 5710 5704 5699 5694 5688 5682 5676
5801 5801 5801 5799 5799 5797 5795 5794 5793 5791 5789 5788 5786 5784 5781 5779 5776 5773 5771 5768 5766 5763 5760 5757 5754 5751 5747 5743 5739 5735 5731 5727 5722 5717 5712 5707 5701 5696 5691 5686 5681 5675 5670 5664